DW8868 Weather Reports


Display with metric or nautical units.
time (UTC)temp
F
wind
direction
speed
MPH
gust
MPH
rain 1hr
in
rain 24hr
in
rain mn
in
humidity
%
barometer
mb
20260509224217 74 145 2.0 2.0 0.00 0.00 0.00 10 1007.8
20260509223714 74 146 1.0 1.0 0.00 0.00 0.00 10 1008.1
20260509223211 75 163 0.0 1.0 0.00 0.00 0.00 10 1007.9
20260509222708 75 127 1.0 1.0 0.00 0.00 0.00 10 1007.8
20260509222203 75 184 2.0 2.0 0.00 0.00 0.00 10 1007.9
20260509221659 75 178 2.0 2.0 0.00 0.00 0.00 10 1007.7
20260509221155 74 126 1.0 1.0 0.00 0.00 0.00 10 1007.9
20260509220652 73 138 1.0 1.0 0.00 0.00 0.00 10 1008.2
20260509220148 73 155 2.0 2.0 0.00 0.00 0.00 10 1007.9
20260509215644 74 155 0.0 1.0 0.00 0.00 0.00 10 1008.0
20260509215140 74 138 0.0 0.0 0.00 0.00 0.00 10 1007.8
20260509214632 75 90 0.0 1.0 0.00 0.00 0.00 10 1007.9
20260509214129 75 127 2.0 2.0 0.00 0.00 0.00 10 1007.8
20260509213625 75 178 1.0 2.0 0.00 0.00 0.00 10 1007.9
20260509213121 74 141 1.0 2.0 0.00 0.00 0.00 10 1007.9
20260509212618 74 168 2.0 2.0 0.00 0.00 0.00 10 1007.7
20260509212110 75 166 2.0 2.0 0.00 0.00 0.00 10 1007.8
20260509211606 74 125 0.0 0.0 0.00 0.00 0.00 10 1007.8
20260509211103 73 163 2.0 2.0 0.00 0.00 0.00 10 1007.8
20260509210559 74 146 1.0 1.0 0.00 0.00 0.00 10 1007.6
20260509210056 75 129 0.0 0.0 0.00 0.00 0.00 10 1007.8
20260509205556 75 193 3.0 3.0 0.00 0.00 0.00 10 1007.7
20260509205051 75 204 3.0 3.0 0.00 0.00 0.00 10 1007.9
20260509204548 76 113 0.0 1.0 0.00 0.00 0.00 10 1007.8
20260509204045 75 240 3.0 3.0 0.00 0.00 0.00 10 1007.8
20260509203540 75 131 1.0 1.0 0.00 0.00 0.00 10 1007.7
20260509203039 75 196 4.0 5.0 0.00 0.00 0.00 10 1007.8
20260509202533 74 175 1.0 1.0 0.00 0.00 0.00 10 1007.8
20260509202029 75 186 2.0 2.0 0.00 0.00 0.00 10 1007.6
20260509201524 73 211 4.0 5.0 0.00 0.00 0.00 10 1007.7
20260509201022 74 159 2.0 2.0 0.00 0.00 0.00 10 1007.6
20260509200521 72 165 0.0 1.0 0.00 0.00 0.00 10 1007.9
20260509200019 72 140 3.0 3.0 0.00 0.00 0.00 10 1008.0
20260509195514 72 357 2.0 2.0 0.00 0.00 0.00 10 1008.0
20260509195014 73 163 3.0 3.0 0.00 0.00 0.00 10 1008.3
20260509194509 74 104 1.0 2.0 0.00 0.00 0.00 10 1008.1
20260509194007 74 169 2.0 2.0 0.00 0.00 0.00 10 1008.2
20260509193507 73 5 4.0 6.0 0.00 0.00 0.00 10 1008.4
20260509193004 74 356 1.0 1.0 0.00 0.00 0.00 10 1008.4
20260509192500 74 226 2.0 3.0 0.00 0.00 0.00 10 1008.7
20260509191955 73 196 3.0 3.0 0.00 0.00 0.00 10 1008.7
20260509191450 72 146 1.0 1.0 0.00 0.00 0.00 10 1008.8
20260509190946 71 120 1.0 2.0 0.00 0.00 0.00 10 1008.7
20260509190443 73 124 2.0 3.0 0.00 0.00 0.00 10 1009.0
20260509185941 72 142 0.0 0.0 0.00 0.00 0.00 10 1009.0
20260509185438 72 120 0.0 0.0 0.00 0.00 0.00 10 1009.0
20260509184935 72 86 1.0 1.0 0.00 0.00 0.00 10 1009.0
20260509184433 72 104 0.0 0.0 0.00 0.00 0.00 10 1009.1
20260509183929 72 180 1.0 2.0 0.00 0.00 0.00 10 1008.8
20260509183423 71 174 0.0 0.0 0.00 0.00 0.00 10 1009.0
20260509182920 70 111 0.0 0.0 0.00 0.00 0.00 10 1009.3
20260509182416 70 143 1.0 1.0 0.00 0.00 0.00 10 1009.4
20260509181914 69 136 1.0 1.0 0.00 0.00 0.00 10 1009.1
20260509181412 69 119 1.0 1.0 0.00 0.00 0.00 10 1009.3
20260509180909 70 111 0.0 0.0 0.00 0.00 0.00 10 1009.4
20260509180404 70 131 1.0 1.0 0.00 0.00 0.00 10 1009.6
20260509175901 69 61 0.0 1.0 0.00 0.00 0.00 10 1009.8
20260509175357 69 127 0.0 0.0 0.00 0.00 0.00 10 1009.9
20260509174854 69 145 1.0 1.0 0.00 0.00 0.00 10 1010.0
20260509174350 69 155 1.0 2.0 0.00 0.00 0.00 10 1010.2
20260509173846 69 123 1.0 1.0 0.00 0.00 0.00 10 1009.9
20260509173341 69 255 3.0 5.0 0.00 0.00 0.00 10 1010.0
20260509172837 69 100 0.0 1.0 0.00 0.00 0.00 10 1010.1
20260509172334 69 135 2.0 3.0 0.00 0.00 0.00 10 1009.9
20260509171830 69 174 1.0 2.0 0.00 0.00 0.00 10 1010.2
20260509171326 69 151 1.0 1.0 0.00 0.00 0.00 10 1010.0
20260509170823 70 103 1.0 2.0 0.00 0.00 0.00 10 1010.0
20260509170318 70 177 3.0 3.0 0.00 0.00 0.00 10 1010.2
20260509165818 70 140 1.0 1.0 0.00 0.00 0.00 10 1010.1
20260509165313 69 233 3.0 5.0 0.00 0.00 0.00 10 1010.1
20260509164809 69 283 4.0 5.0 0.00 0.00 0.00 10 1010.1
20260509164306 68 175 2.0 2.0 0.00 0.00 0.00 10 1010.3
20260509163802 68 138 0.0 0.0 0.00 0.00 0.00 10 1010.2
20260509163259 69 147 1.0 1.0 0.00 0.00 0.00 10 1010.4
20260509162758 69 228 2.0 2.0 0.00 0.00 0.00 10 1010.3
20260509162251 69 131 1.0 2.0 0.00 0.00 0.00 10 1010.2
20260509161747 68 21 0.0 1.0 0.00 0.00 0.00 10 1010.3
20260509161243 67 139 1.0 2.0 0.00 0.00 0.00 10 1010.4
20260509160739 68 164 2.0 2.0 0.00 0.00 0.00 10 1010.2
20260509160236 68 154 0.0 1.0 0.00 0.00 0.00 10 1010.4
20260509155731 69 131 1.0 1.0 0.00 0.00 0.00 10 1010.4
20260509155228 69 158 2.0 2.0 0.00 0.00 0.00 10 1010.3
20260509154723 68 122 0.0 1.0 0.00 0.00 0.00 10 1010.4
20260509154221 67 92 1.0 1.0 0.00 0.00 0.00 10 1010.5
20260509153718 66 137 1.0 2.0 0.00 0.00 0.00 10 1010.4
20260509153214 67 291 3.0 5.0 0.00 0.00 0.00 10 1010.4
20260509152710 67 131 1.0 2.0 0.00 0.00 0.00 10 1010.6
20260509152207 66 147 1.0 1.0 0.00 0.00 0.00 10 1010.5
20260509151704 67 177 1.0 2.0 0.00 0.00 0.00 10 1010.7
20260509151201 68 156 1.0 1.0 0.00 0.00 0.00 10 1010.5
20260509150659 67 208 2.0 2.0 0.00 0.00 0.00 10 1010.7
20260509150157 67 141 1.0 1.0 0.00 0.00 0.00 10 1010.5
20260509145653 66 156 1.0 2.0 0.00 0.00 0.00 10 1010.9
20260509145148 66 200 2.0 2.0 0.00 0.00 0.00 10 1010.7
20260509144645 65 123 0.0 1.0 0.00 0.00 0.00 10 1011.0
20260509144142 64 200 2.0 2.0 0.00 0.00 0.00 10 1011.2
20260509143639 64 151 1.0 2.0 0.00 0.00 0.00 10 1011.0
20260509143137 64 141 3.0 3.0 0.00 0.00 0.00 10 1011.1
20260509142632 63 110 1.0 1.0 0.00 0.00 0.00 10 1011.1
20260509142129 63 149 1.0 1.0 0.00 0.00 0.00 10 1011.3
20260509141624 63 157 2.0 2.0 0.00 0.00 0.00 10 1011.1
20260509141121 62 110 1.0 2.0 0.00 0.00 0.00 10 1011.4
20260509140618 62 132 1.0 1.0 0.00 0.00 0.00 10 1011.2
20260509140116 61 145 2.0 2.0 0.00 0.00 0.00 10 1011.3
20260509135613 60 158 2.0 2.0 0.00 0.00 0.00 10 1011.2
20260509135111 59 137 1.0 1.0 0.00 0.00 0.00 10 1011.0
20260509134607 59 122 1.0 1.0 0.00 0.00 0.00 10 1010.9
20260509134105 60 123 1.0 1.0 0.00 0.00 0.00 10 1011.2
20260509133602 60 129 0.0 0.0 0.00 0.00 0.00 10 1011.2
20260509133059 59 128 0.0 0.0 0.00 0.00 0.00 10 1011.4
20260509132557 59 128 0.0 0.0 0.00 0.00 0.00 10 1011.3
20260509132055 59 129 0.0 1.0 0.00 0.00 0.00 10 1011.2
20260509131551 59 152 0.0 0.0 0.00 0.00 0.00 10 1011.2
20260509131048 59 128 0.0 0.0 0.00 0.00 0.00 10 1011.5
20260509130544 59 134 1.0 1.0 0.00 0.00 0.00 10 1011.5
20260509130041 59 130 0.0 0.0 0.00 0.00 0.00 10 1011.5
20260509125537 59 131 1.0 1.0 0.00 0.00 0.00 10 1011.6
20260509125034 59 137 0.0 1.0 0.00 0.00 0.00 10 1011.4
20260509124530 58 137 0.0 1.0 0.00 0.00 0.00 10 1011.3
20260509124028 58 135 0.0 0.0 0.00 0.00 0.00 10 1011.3
20260509123526 58 164 1.0 1.0 0.00 0.00 0.00 10 1011.3
20260509123021 58 130 0.0 0.0 0.00 0.00 0.00 10 1011.2
20260509122518 58 152 0.0 0.0 0.00 0.00 0.00 10 1011.0
20260509122015 58 152 2.0 2.0 0.00 0.00 0.00 10 1011.3
20260509121512 58 150 1.0 1.0 0.00 0.00 0.00 10 1011.2
20260509121010 58 156 1.0 2.0 0.00 0.00 0.00 10 1011.2
20260509120508 58 161 1.0 2.0 0.00 0.00 0.00 10 1011.2
20260509120005 58 157 1.0 2.0 0.00 0.00 0.00 10 1011.0
20260509115502 58 179 2.0 2.0 0.00 0.00 0.00 10 1011.1
20260509115000 58 163 1.0 2.0 0.00 0.00 0.00 10 1011.1
20260509114458 58 136 1.0 2.0 0.00 0.00 0.00 10 1011.1
20260509113957 58 153 1.0 1.0 0.00 0.00 0.00 10 1011.1
20260509113454 58 171 2.0 2.0 0.00 0.00 0.00 10 1011.1
20260509112951 58 166 2.0 2.0 0.00 0.00 0.00 10 1011.0
20260509112448 58 164 1.0 2.0 0.00 0.00 0.00 10 1010.8
20260509111944 58 164 2.0 2.0 0.00 0.00 0.00 10 1010.8
20260509111442 57 154 2.0 2.0 0.00 0.00 0.00 10 1011.0
20260509110940 57 151 1.0 1.0 0.00 0.00 0.00 10 1010.7
20260509110435 57 152 1.0 1.0 0.00 0.00 0.00 10 1010.9
20260509105933 57 153 1.0 1.0 0.00 0.00 0.00 10 1010.9
20260509105432 57 168 2.0 2.0 0.00 0.00 0.00 10 1010.9
20260509104928 57 155 1.0 1.0 0.00 0.00 0.00 10 1010.8
20260509104425 57 151 1.0 1.0 0.00 0.00 0.00 10 1010.8
20260509103922 57 164 1.0 1.0 0.00 0.00 0.00 10 1010.6
20260509103420 57 193 2.0 2.0 0.00 0.00 0.00 10 1010.6
20260509102918 57 172 2.0 2.0 0.00 0.00 0.00 10 1011.0
20260509102415 57 171 3.0 3.0 0.00 0.00 0.00 10 1010.7
20260509101911 57 151 1.0 1.0 0.00 0.00 0.00 10 1010.7
20260509101407 57 161 1.0 1.0 0.00 0.00 0.00 10 1010.9
20260509100905 57 160 1.0 2.0 0.00 0.00 0.00 10 1010.6
20260509100402 57 152 1.0 1.0 0.00 0.00 0.00 10 1010.4
20260509095859 57 174 2.0 2.0 0.00 0.00 0.00 10 1010.7
20260509095356 57 159 1.0 1.0 0.00 0.00 0.00 10 1010.3
20260509094853 57 146 1.0 1.0 0.00 0.00 0.00 10 1010.6
20260509094349 57 168 2.0 2.0 0.00 0.00 0.00 10 1010.6
20260509093847 57 164 1.0 2.0 0.00 0.00 0.00 10 1010.5
20260509093344 57 191 3.0 3.0 0.00 0.00 0.00 10 1010.6
20260509092843 57 165 2.0 2.0 0.00 0.00 0.00 10 1010.8
20260509092340 57 164 2.0 2.0 0.00 0.00 0.00 10 1010.7
20260509091838 57 152 1.0 1.0 0.00 0.00 0.00 10 1010.8
20260509091335 58 149 1.0 2.0 0.00 0.00 0.00 10 1010.9
20260509090832 57 191 3.0 3.0 0.00 0.00 0.00 10 1010.8
20260509090329 58 187 3.0 3.0 0.00 0.00 0.00 10 1011.1
20260509085827 58 185 2.0 2.0 0.00 0.00 0.00 10 1010.8
20260509085324 57 177 2.0 2.0 0.00 0.00 0.00 10 1010.8
20260509084820 57 178 1.0 2.0 0.00 0.00 0.00 10 1011.0
20260509084317 57 138 1.0 1.0 0.00 0.00 0.00 10 1011.1
20260509083815 57 149 1.0 1.0 0.00 0.00 0.00 10 1011.1
20260509083311 57 156 1.0 2.0 0.00 0.00 0.00 10 1011.1
20260509082808 57 166 2.0 2.0 0.00 0.00 0.00 10 1011.2
20260509082307 57 160 1.0 1.0 0.00 0.00 0.00 10 1010.9
20260509081802 57 182 3.0 3.0 0.00 0.00 0.00 10 1011.1
20260509081259 57 155 2.0 2.0 0.00 0.00 0.00 10 1011.3
20260509080757 57 164 1.0 2.0 0.00 0.00 0.00 10 1011.4
20260509080254 57 190 2.0 2.0 0.00 0.00 0.00 10 1011.3
20260509075753 57 146 0.0 1.0 0.00 0.00 0.00 10 1011.3
20260509075250 57 153 1.0 2.0 0.00 0.00 0.00 10 1011.3
20260509074746 57 158 1.0 2.0 0.00 0.00 0.00 10 1011.3
20260509074245 57 205 2.0 3.0 0.00 0.00 0.00 10 1011.4
20260509073740 57 178 2.0 2.0 0.00 0.00 0.00 10 1011.2
20260509073237 57 178 2.0 2.0 0.00 0.00 0.00 10 1011.5
20260509072733 57 151 1.0 1.0 0.00 0.00 0.00 10 1011.5
20260509072230 58 170 2.0 2.0 0.00 0.00 0.00 10 1011.3
20260509071727 58 163 2.0 2.0 0.00 0.00 0.00 10 1011.1
20260509071224 58 160 3.0 3.0 0.00 0.00 0.00 10 1011.3
20260509070721 58 178 2.0 2.0 0.00 0.00 0.00 10 1011.2
20260509070217 58 146 1.0 2.0 0.00 0.00 0.00 10 1011.4
20260509065714 58 147 1.0 1.0 0.00 0.00 0.00 10 1011.3
20260509065210 59 156 2.0 2.0 0.00 0.00 0.00 10 1011.4
20260509064707 58 167 2.0 2.0 0.00 0.00 0.00 10 1011.4
20260509064204 59 162 2.0 2.0 0.00 0.00 0.00 10 1011.5
20260509063701 59 161 2.0 2.0 0.00 0.00 0.00 10 1011.4
20260509063158 59 183 2.0 2.0 0.00 0.00 0.00 10 1011.3
20260509062655 59 184 1.0 2.0 0.00 0.00 0.00 10 1011.5
20260509062152 59 174 3.0 3.0 0.00 0.00 0.00 10 1011.6
20260509061649 59 165 3.0 3.0 0.00 0.00 0.00 10 1011.6
20260509061146 59 158 1.0 1.0 0.00 0.00 0.00 10 1011.6
20260509060644 59 184 2.0 2.0 0.00 0.00 0.00 10 1011.8
20260509060140 59 188 3.0 5.0 0.00 0.00 0.00 10 1011.6
20260509055636 59 153 3.0 3.0 0.00 0.00 0.00 10 1011.6
20260509055132 59 153 1.0 2.0 0.00 0.00 0.00 10 1011.9
20260509054628 59 183 2.0 2.0 0.00 0.00 0.00 10 1011.8
20260509054126 59 168 2.0 2.0 0.00 0.00 0.00 10 1011.7
20260509053624 59 185 3.0 3.0 0.00 0.00 0.00 10 1011.7
20260509053121 59 177 1.0 2.0 0.00 0.00 0.00 10 1011.9
20260509052619 60 167 2.0 3.0 0.00 0.00 0.00 10 1011.7
20260509052116 60 148 1.0 2.0 0.00 0.00 0.00 10 1011.6
20260509051614 60 187 3.0 3.0 0.00 0.00 0.00 10 1011.8
20260509051111 60 193 3.0 3.0 0.00 0.00 0.00 10 1012.0
20260509050608 60 183 2.0 2.0 0.00 0.00 0.00 10 1011.9
20260509050104 60 192 3.0 3.0 0.00 0.00 0.00 10 1011.7
20260509045602 60 148 1.0 1.0 0.00 0.00 0.00 10 1011.7
20260509045058 60 186 2.0 2.0 0.00 0.00 0.00 10 1011.6
20260509044556 60 184 1.0 2.0 0.00 0.00 0.00 10 1011.6
20260509044053 60 190 3.0 3.0 0.00 0.00 0.00 10 1011.7
20260509043549 60 165 2.0 2.0 0.00 0.00 0.00 10 1011.8
20260509043045 60 179 2.0 2.0 0.00 0.00 0.00 10 1011.7
20260509042541 60 181 2.0 2.0 0.00 0.00 0.00 10 1012.0
20260509042038 60 178 3.0 3.0 0.00 0.00 0.00 10 1011.8
20260509041534 60 182 2.0 2.0 0.00 0.00 0.00 10 1011.8
20260509041032 60 156 1.0 2.0 0.00 0.00 0.00 10 1012.0
20260509040531 60 198 2.0 3.0 0.00 0.00 0.00 10 1011.9
20260509040027 60 175 1.0 2.0 0.00 0.00 0.00 10 1011.6
20260509035524 60 144 1.0 2.0 0.00 0.00 0.00 10 1011.9
20260509035020 60 157 2.0 2.0 0.00 0.00 0.00 10 1011.9
20260509034519 60 144 1.0 1.0 0.00 0.00 0.00 10 1011.9
20260509034015 60 161 2.0 2.0 0.00 0.00 0.00 10 1012.0
20260509033512 60 147 2.0 2.0 0.00 0.00 0.00 10 1012.1
20260509033010 60 180 1.0 2.0 0.00 0.00 0.00 10 1012.0
20260509032507 60 181 1.0 2.0 0.00 0.00 0.00 10 1012.2
20260509032004 60 152 2.0 2.0 0.00 0.00 0.00 10 1011.9
20260509031501 60 161 2.0 2.0 0.00 0.00 0.00 10 1012.1
20260509030958 60 152 1.0 2.0 0.00 0.00 0.00 10 1012.1
20260509030456 60 162 2.0 2.0 0.00 0.00 0.00 10 1012.1
20260509025953 60 163 1.0 1.0 0.00 0.00 0.00 10 1012.3
20260509025449 60 156 1.0 2.0 0.00 0.00 0.00 10 1012.1
20260509024944 60 145 1.0 2.0 0.00 0.00 0.00 10 1012.1
20260509024440 60 156 2.0 2.0 0.00 0.00 0.00 10 1012.3
20260509023937 60 157 0.0 0.0 0.00 0.00 0.00 10 1012.1
20260509023435 60 156 0.0 0.0 0.00 0.00 0.00 10 1012.2
20260509022931 60 130 0.0 0.0 0.00 0.00 0.00 10 1012.2
20260509022428 60 144 1.0 1.0 0.00 0.00 0.00 10 1012.1
20260509021926 60 144 2.0 2.0 0.00 0.00 0.00 10 1012.2
20260509021423 60 132 1.0 1.0 0.00 0.00 0.00 10 1012.2
20260509020920 61 131 1.0 1.0 0.00 0.00 0.00 10 1012.3
20260509020418 61 131 1.0 1.0 0.00 0.00 0.00 10 1012.0
20260509015915 61 132 1.0 1.0 0.00 0.00 0.00 10 1012.1
20260509015414 62 144 1.0 1.0 0.00 0.00 0.00 10 1012.0
20260509014910 62 145 1.0 1.0 0.00 0.00 0.00 10 1012.1
20260509014407 62 156 2.0 2.0 0.00 0.00 0.00 10 1011.9
20260509013903 62 144 1.0 1.0 0.00 0.00 0.00 10 1012.0
20260509013359 62 130 0.0 0.0 0.00 0.00 0.00 10 1011.9
20260509012850 62 131 0.0 0.0 0.00 0.00 0.00 10 1012.1
20260509012347 62 144 0.0 0.0 0.00 0.00 0.00 10 1012.1
20260509011844 62 145 0.0 0.0 0.00 0.00 0.00 10 1012.0
20260509011342 62 130 0.0 0.0 0.00 0.00 0.00 10 1012.1
20260509010840 62 130 0.0 0.0 0.00 0.00 0.00 10 1011.8
20260509010337 63 144 0.0 0.0 0.00 0.00 0.00 10 1011.7
20260509005833 63 132 0.0 0.0 0.00 0.00 0.00 10 1011.8
20260509005331 63 132 0.0 0.0 0.00 0.00 0.00 10 1011.9
20260509004831 63 144 0.0 0.0 0.00 0.00 0.00 10 1011.8
20260509004328 64 129 0.0 0.0 0.00 0.00 0.00 10 1011.7
20260509003826 64 130 0.0 0.0 0.00 0.00 0.00 10 1011.8
20260509003323 64 129 0.0 0.0 0.00 0.00 0.00 10 1011.7
20260509002820 65 130 0.0 0.0 0.00 0.00 0.00 10 1011.8
20260509002318 66 130 1.0 1.0 0.00 0.00 0.00 10 1011.7
20260509001816 66 130 0.0 1.0 0.00 0.00 0.00 10 1011.5
20260509001311 66 130 1.0 1.0 0.00 0.00 0.00 10 1011.4
20260509000809 67 129 0.0 0.0 0.00 0.00 0.00 10 1011.7
20260509000306 67 137 1.0 1.0 0.00 0.00 0.00 10 1011.3
20260508235757 67 137 1.0 1.0 0.00 0.00 0.00 10 1011.5
20260508235254 67 130 0.0 1.0 0.00 0.00 0.00 10 1011.1
20260508234751 67 156 2.0 2.0 0.00 0.00 0.00 10 1011.3
20260508234247 67 137 1.0 1.0 0.00 0.00 0.00 10 1011.0
20260508233746 67 132 0.0 0.0 0.00 0.00 0.00 10 1011.3
20260508233245 67 137 1.0 1.0 0.00 0.00 0.00 10 1011.3
20260508232742 68 133 1.0 1.0 0.00 0.00 0.00 10 1011.3
20260508232238 68 144 1.0 1.0 0.00 0.00 0.00 10 1011.2
20260508231736 68 132 1.0 1.0 0.00 0.00 0.00 10 1011.2
20260508231232 68 135 2.0 2.0 0.00 0.00 0.00 10 1011.3
20260508230729 68 130 1.0 1.0 0.00 0.00 0.00 10 1011.3
20260508230225 69 165 2.0 2.0 0.00 0.00 0.00 10 1011.0
20260508225724 69 174 1.0 2.0 0.00 0.00 0.00 10 1011.2
20260508225220 69 130 1.0 2.0 0.00 0.00 0.00 10 1010.9
20260508224718 70 124 1.0 1.0 0.00 0.00 0.00 10 1011.1